EN

Hourly Weather Abbeville

Today, 13 June, Sunday

Time Temperature Precipitation Wind Pressure Humidity
00:00 +13°C° 0 mm 2 mps 767 mmHg 89%
01:00 +12°C° 0 mm 2 mps 767 mmHg 90%
02:00 +12°C° 0 mm 2 mps 767 mmHg 90%
03:00 +12°C° 0 mm 2 mps 767 mmHg 91%
04:00 +13°C° 0 mm 2 mps 768 mmHg 88%
05:00 +14°C° 0 mm 2 mps 768 mmHg 85%
06:00 +15°C° 0 mm 2 mps 768 mmHg 81%
07:00 +16°C° 0 mm 2 mps 768 mmHg 76%
08:00 +18°C° 0 mm 2 mps 768 mmHg 71%
09:00 +20°C° 0 mm 2 mps 768 mmHg 66%
10:00 +21°C° 0 mm 2 mps 768 mmHg 63%
11:00 +23°C° 0 mm 2 mps 768 mmHg 61%
12:00 +24°C° 0 mm 2 mps 768 mmHg 59%
13:00 +24°C° 0 mm 2 mps 767 mmHg 58%
14:00 +25°C° 0 mm 2 mps 767 mmHg 58%
15:00 +25°C° 0 mm 3 mps 766 mmHg 58%
16:00 +24°C° 0 mm 2 mps 766 mmHg 62%
17:00 +24°C° 0 mm 2 mps 766 mmHg 66%
18:00 +23°C° 0 mm 2 mps 766 mmHg 70%
19:00 +20°C° 0 mm 2 mps 766 mmHg 75%
20:00 +18°C° 0 mm 2 mps 766 mmHg 79%
21:00 +16°C° 0 mm 1 mps 766 mmHg 83%
22:00 +16°C° 0 mm 2 mps 766 mmHg 84%
23:00 +15°C° 0 mm 2 mps 765 mmHg 85%

Tomorrow, 14 June, Monday

Time Temperature Precipitation Wind Pressure Humidity
00:00 +15°C° 0 mm 2 mps 765 mmHg 85%
01:00 +14°C° 0 mm 2 mps 765 mmHg 85%
02:00 +14°C° 0 mm 2 mps 764 mmHg 85%
03:00 +13°C° 0 mm 1 mps 764 mmHg 85%
04:00 +14°C° 0 mm 1 mps 764 mmHg 81%
05:00 +16°C° 0 mm 1 mps 764 mmHg 78%
06:00 +18°C° 0 mm 1 mps 764 mmHg 74%
07:00 +20°C° 0 mm 1 mps 764 mmHg 69%
08:00 +22°C° 0 mm 1 mps 764 mmHg 64%
09:00 +23°C° 0 mm 1 mps 764 mmHg 58%
10:00 +25°C° 0 mm 1 mps 764 mmHg 56%
11:00 +26°C° 0 mm 1 mps 763 mmHg 53%
12:00 +27°C° 0 mm 1 mps 763 mmHg 50%
13:00 +26°C° 0 mm 2 mps 763 mmHg 52%
14:00 +26°C° 0 mm 2 mps 763 mmHg 53%
15:00 +26°C° 0 mm 2 mps 763 mmHg 54%
16:00 +25°C° 0 mm 2 mps 763 mmHg 59%
17:00 +24°C° 0 mm 2 mps 763 mmHg 65%
18:00 +22°C° 0 mm 3 mps 763 mmHg 70%
19:00 +21°C° 0 mm 2 mps 763 mmHg 74%
20:00 +19°C° 0 mm 2 mps 763 mmHg 78%
21:00 +17°C° 0 mm 2 mps 763 mmHg 82%
22:00 +16°C° 0 mm 1 mps 763 mmHg 84%
23:00 +16°C° 0 mm 1 mps 763 mmHg 86%

Day after tomorrow, 15 June, Tuesday

Time Temperature Precipitation Wind Pressure Humidity
00:00 +16°C° 0 mm 1 mps 763 mmHg 88%
01:00 +15°C° 0 mm 1 mps 763 mmHg 89%
02:00 +15°C° 0 mm 1 mps 763 mmHg 90%
03:00 +15°C° 0 mm 1 mps 763 mmHg 91%
04:00 +16°C° 0 mm 1 mps 763 mmHg 89%
05:00 +18°C° 0 mm 1 mps 763 mmHg 86%
06:00 +19°C° 0 mm 1 mps 763 mmHg 84%
07:00 +20°C° 0 mm 1 mps 763 mmHg 80%
08:00 +22°C° 0 mm 1 mps 763 mmHg 75%
09:00 +23°C° 0 mm 2 mps 763 mmHg 71%
10:00 +24°C° 0 mm 2 mps 763 mmHg 68%
11:00 +25°C° 0 mm 2 mps 763 mmHg 65%
12:00 +26°C° 0 mm 2 mps 762 mmHg 62%
13:00 +26°C° 0 mm 2 mps 762 mmHg 63%
14:00 +26°C° 0 mm 2 mps 762 mmHg 64%
15:00 +26°C° 0 mm 2 mps 762 mmHg 64%
16:00 +26°C° 0 mm 2 mps 761 mmHg 68%
17:00 +25°C° 0 mm 2 mps 761 mmHg 71%
18:00 +25°C° 0 mm 2 mps 761 mmHg 75%
19:00 +23°C° 0 mm 2 mps 761 mmHg 80%
20:00 +20°C° 0 mm 2 mps 760 mmHg 85%
21:00 +19°C° 0 mm 2 mps 760 mmHg 90%
22:00 +18°C° 0 mm 2 mps 760 mmHg 91%
23:00 +18°C° 0 mm 2 mps 760 mmHg 91%

16 June, Wednesday

Time Temperature Precipitation Wind Pressure Humidity
00:00 +18°C° 0 mm 2 mps 760 mmHg 92%
01:00 +17°C° 0 mm 2 mps 759 mmHg 93%
02:00 +17°C° 0 mm 2 mps 759 mmHg 93%
03:00 +17°C° 0 mm 2 mps 758 mmHg 93%
04:00 +18°C° 0 mm 2 mps 758 mmHg 91%
05:00 +19°C° 0 mm 2 mps 758 mmHg 89%
06:00 +20°C° 0 mm 2 mps 758 mmHg 86%
07:00 +23°C° 0 mm 2 mps 758 mmHg 79%
08:00 +25°C° 0 mm 2 mps 758 mmHg 73%
09:00 +27°C° 0 mm 2 mps 758 mmHg 66%
10:00 +27°C° 0 mm 2 mps 757 mmHg 62%
11:00 +28°C° 0 mm 2 mps 757 mmHg 59%
12:00 +29°C° 0 mm 3 mps 757 mmHg 55%
13:00 +30°C° 0 mm 3 mps 756 mmHg 53%
14:00 +30°C° 0 mm 3 mps 756 mmHg 52%
15:00 +30°C° 0 mm 3 mps 756 mmHg 50%
16:00 +29°C° 0 mm 3 mps 755 mmHg 56%
17:00 +28°C° 0 mm 3 mps 755 mmHg 62%
18:00 +28°C° 0 mm 2 mps 755 mmHg 68%
19:00 +26°C° 0.1 mm 2 mps 755 mmHg 72%
20:00 +25°C° 0.1 mm 3 mps 755 mmHg 77%
21:00 +24°C° 0.1 mm 3 mps 755 mmHg 82%
22:00 +23°C° 0.3 mm 2 mps 755 mmHg 85%
23:00 +21°C° 0.3 mm 2 mps 754 mmHg 88%

17 June, Thursday

Time Temperature Precipitation Wind Pressure Humidity
00:00 +21°C° 0.3 mm 2 mps 754 mmHg 91%
01:00 +20°C° 1.5 mm 3 mps 754 mmHg 93%
02:00 +20°C° 1.5 mm 3 mps 754 mmHg 95%
03:00 +20°C° 1.5 mm 4 mps 755 mmHg 97%
04:00 +20°C° 2.1 mm 4 mps 755 mmHg 96%
05:00 +20°C° 2.1 mm 3 mps 755 mmHg 96%
06:00 +20°C° 2.1 mm 3 mps 755 mmHg 96%
07:00 +22°C° 0 mm 3 mps 755 mmHg 89%
08:00 +23°C° 0 mm 4 mps 755 mmHg 82%
09:00 +26°C° 0 mm 4 mps 755 mmHg 75%
10:00 +26°C° 0 mm 4 mps 755 mmHg 70%
11:00 +27°C° 0 mm 5 mps 755 mmHg 66%
12:00 +28°C° 0 mm 5 mps 755 mmHg 62%
13:00 +28°C° 0 mm 5 mps 755 mmHg 62%
14:00 +28°C° 0 mm 4 mps 755 mmHg 63%
15:00 +28°C° 0 mm 4 mps 755 mmHg 63%
16:00 +27°C° 0 mm 4 mps 755 mmHg 69%
17:00 +25°C° 0 mm 3 mps 755 mmHg 76%
18:00 +24°C° 0 mm 3 mps 756 mmHg 83%
19:00 +22°C° 1.3 mm 3 mps 756 mmHg 87%
20:00 +21°C° 1.3 mm 2 mps 756 mmHg 92%
21:00 +19°C° 1.3 mm 2 mps 757 mmHg 97%
22:00 +20°C° 0 mm 2 mps 757 mmHg 97%
23:00 +20°C° 0 mm 2 mps 756 mmHg 97%

18 June, Friday

Time Temperature Precipitation Wind Pressure Humidity
00:00 +20°C° 0 mm 2 mps 756 mmHg 97%
01:00 +19°C° 0.1 mm 2 mps 756 mmHg 97%
02:00 +19°C° 0.1 mm 2 mps 756 mmHg 97%
03:00 +20°C° 0.1 mm 1 mps 756 mmHg 97%
04:00 +19°C° 1 mm 2 mps 756 mmHg 97%
05:00 +20°C° 1 mm 3 mps 756 mmHg 96%
06:00 +20°C° 1 mm 4 mps 755 mmHg 95%
07:00 +21°C° 0.1 mm 4 mps 755 mmHg 93%
08:00 +21°C° 0.1 mm 4 mps 755 mmHg 90%
09:00 +21°C° 0.1 mm 5 mps 755 mmHg 88%
10:00 +22°C° 0.4 mm 5 mps 755 mmHg 86%
11:00 +22°C° 0.4 mm 6 mps 754 mmHg 84%
12:00 +23°C° 0.4 mm 7 mps 754 mmHg 82%
13:00 +21°C° 0.5 mm 7 mps 754 mmHg 86%
14:00 +20°C° 0.5 mm 7 mps 754 mmHg 89%
15:00 +18°C° 0.5 mm 7 mps 754 mmHg 93%
16:00 +17°C° 0.4 mm 8 mps 755 mmHg 93%
17:00 +16°C° 0.4 mm 9 mps 755 mmHg 94%
18:00 +15°C° 0.4 mm 9 mps 756 mmHg 94%
19:00 +15°C° 0.1 mm 9 mps 756 mmHg 93%
20:00 +15°C° 0.1 mm 8 mps 757 mmHg 92%
21:00 +15°C° 0.1 mm 8 mps 757 mmHg 91%
22:00 +15°C° 0 mm 7 mps 757 mmHg 92%
23:00 +14°C° 0 mm 6 mps 757 mmHg 92%
Show more